Flag for Vanuatu Weather past 2 weeks in Port Vila, Vanuatu

Now
84 °F

Scattered clouds.


Feels Like: 88 °F
Forecast: 76 / 80 °F
Wind: 7 mph from East

Location: Bauerfield Efate

Current Time: Aug 29, 2014 at 12:38:10 PM

Latest Report: Aug 29, 2014 at 12:00 PM


Visibility: N/A

Pressure: 29.92 "Hg

Humidity: 62%

Dew point: 70 °F

Location of Port VilaLocation

Historic Weather in Port Vila — Graph

°F

Port Vila temperature yesterday

Maximum temperature yesterday: 82 °F (at 11:00 AM)
Minimum temperature yesterday: 72 °F (at 1:00 AM)
Average temperature yesterday: 77 °F

Past Weeks' High & Low Weather Summary

 TemperatureHumidityPressure
High84 °F (Aug 27, 12:00 PM)100% (Aug 17, 2:00 AM)30.12 "Hg (Aug 17, 2:00 AM)
Low57 °F (Aug 16, 4:00 AM)50% (Aug 16, 11:00 AM)29.86 "Hg (Aug 26, 1:00 PM)
Average74 °F82%29.99 "Hg
* Reported Aug 14 11:00 AM — Aug 29 11:00 AM, Port Vila, Weather by CustomWeather, © 2014

Note: Actual official high and low records may vary slightly from our data, if they occured in-between our weather recording intervals... More about our weather records

Advertising

Port Vila weather history for previous 24 hours

 ConditionsComfort  
Time TempWeatherWind HumidityBarometerVisibility
11:00 AM
Aug 29
84 °FScattered clouds.7 mph62%29.95 "HgN/A
10:00 AM82 °FScattered clouds.8 mph66%29.95 "HgN/A
9:00 AM81 °FScattered clouds.6 mph74%29.98 "HgN/A
8:00 AM77 °FScattered clouds.5 mph83%29.98 "HgN/A
7:00 AM72 °FScattered clouds.No wind88%29.95 "HgN/A
6:00 AM70 °FPartly sunny.No wind94%29.95 "HgN/A
5:00 AM72 °FPassing clouds.2 mph88%29.92 "HgN/A
3:00 AMN/APassing clouds.2 mphN/A29.92 "HgN/A
2:00 AM75 °FPassing clouds.No wind83%29.95 "HgN/A
1:00 AM73 °FPassing clouds.No wind89%29.95 "HgN/A
12:00 AM73 °FPassing clouds.No wind89%29.95 "HgN/A
11:00 PM
Aug 28
73 °FPartly cloudy.No wind89%29.95 "HgN/A
10:00 PM73 °FPartly cloudy.No wind89%29.95 "HgN/A
9:00 PM73 °FPassing clouds.No wind83%29.98 "HgN/A
8:00 PM75 °FPassing clouds.3 mph83%29.98 "HgN/A
7:00 PM75 °FPassing clouds.3 mph83%29.95 "HgN/A
5:00 PM79 °FPartly sunny.7 mph70%29.92 "HgN/A
4:00 PM81 °FPartly sunny.8 mph58%29.92 "HgN/A
3:00 PM81 °FScattered clouds.12 mph62%29.92 "HgN/A
2:00 PM81 °FBroken clouds.10 mph66%29.92 "HgN/A
1:00 PM81 °FBroken clouds.10 mph66%29.95 "HgN/A
12:00 PM82 °FPartly sunny.10 mph62%29.95 "HgN/A
Weather by CustomWeather, © 2014

See weather overviewHow to use our weather pages